Madera, CA

6:24 AM PST on February 22, 2018 (GMT -0800)
Madera Municipal

Weather History for KMAE - June, 2013

Change the Weather History Date:

Sunday, June 30, 2013

  Actual Average Record
Temperature  
Mean Temperature 88 °F 78 °F  
Max Temperature 106 °F 95 °F 106 °F (2013)
Min Temperature 69 °F 60 °F 53 °F (2003)
Degree Days  
Heating Degree Days 0    
Month to date heating degree days 0  
Since 1 June heating degree days 0  
Since 1 July heating degree days 2301  
Cooling Degree Days 23    
Month to date cooling degree days 343  
Year to date cooling degree days 520  
Since 1 June cooling degree days 343  
Growing Degree Days 37 (Base 50)    
Moisture  
Dew Point 58 °F    
Average Humidity 43    
Maximum Humidity 70    
Minimum Humidity 16    
Precipitation  
Precipitation 0.00 in 0.00 in 0.05 in (1982)
Month to date precipitation T 0.19  
Year to date precipitation 3.52 8.00  
Since 1 July precipitation 8.22  
Snow  
Snow 0.00 in - - ()
Month to date snowfall 0.0  
Since 1 June snowfall 0.0  
Since 1 July snowfall 0.0  
Snow Depth 0.00 in    
Sea Level Pressure  
Sea Level Pressure 29.74 in    
Wind  
Wind Speed 7 mph (WNW)    
Max Wind Speed 14 mph    
Max Gust Speed 17 mph    
Visibility 10 miles    
Events      
T = Trace of Precipitation, MM = Missing Value Source: NWS Daily Summary

Daily Weather History Graph

Daily Weather History Graph

Search for Another Location

Airport or City:

Trip Planner

Search our weather history database for the weather conditions in past years. The results will help you decide how hot, cold, wet, or windy it might be!

Date:

Astronomy

Jun. 30, 2013 Rise Set
Actual Time 5:44 AM PDT 8:24 PM PDT
Civil Twilight 5:13 AM PDT 8:54 PM PDT
Nautical Twilight 4:35 AM PDT 9:32 PM PDT
Astronomical Twilight 3:52 AM PDT 10:15 PM PDT
Moon 12:38 AM PDT (6/30) 1:50 PM PDT (6/30)
Length of Visible Light 15h 41m
Length of Day
14h 39m
Last Quarter, 44% of the Moon is Illuminated
Jun 30
Last Quarter
Jul 8
New
Jul 15
First Quarter
Jul 22
Full
Jul 29
Last Quarter

Hourly Weather History & Observations

Time (PDT) Temp. Heat Index Dew Point Humidity Pressure Visibility Wind Dir Wind Speed Gust Speed Precip Events Conditions
12:53 AM 75.9 °F - 62.1 °F 62% 29.77 in 10.0 mi West 4.6 mph - N/A   Clear
1:53 AM 75.0 °F - 61.0 °F 62% 29.76 in 10.0 mi West 6.9 mph - N/A   Clear
2:53 AM 75.0 °F - 60.1 °F 60% 29.75 in 10.0 mi WNW 5.8 mph - N/A   Clear
3:53 AM 75.0 °F - 57.9 °F 55% 29.75 in 10.0 mi NNW 4.6 mph - N/A   Clear
4:53 AM 72.0 °F - 60.1 °F 66% 29.76 in 10.0 mi Calm Calm - N/A   Clear
5:53 AM 69.1 °F - 59.0 °F 70% 29.77 in 10.0 mi WNW 3.5 mph - N/A   Clear
6:53 AM 73.9 °F - 55.9 °F 53% 29.78 in 10.0 mi NW 4.6 mph - N/A   Clear
7:53 AM 78.1 °F - 57.9 °F 50% 29.79 in 10.0 mi NW 3.5 mph - N/A   Clear
8:53 AM 87.1 °F 85.3 °F 55.0 °F 33% 29.79 in 10.0 mi NNW 11.5 mph - N/A   Clear
9:53 AM 91.9 °F - 52.0 °F 26% 29.79 in 10.0 mi NW 12.7 mph - N/A   Clear
10:53 AM 93.9 °F 92.0 °F 55.0 °F 27% 29.78 in 10.0 mi WNW 9.2 mph - N/A   Clear
11:53 AM 97.0 °F 94.6 °F 54.0 °F 23% 29.77 in 10.0 mi WNW 10.4 mph - N/A   Clear
12:53 PM 100.9 °F 99.1 °F 54.0 °F 21% 29.76 in 10.0 mi WNW 8.1 mph - N/A   Clear
1:53 PM 102.0 °F 101.1 °F 57.0 °F 22% 29.74 in 10.0 mi NW 8.1 mph - N/A   Clear
2:53 PM 104.0 °F 102.3 °F 54.0 °F 19% 29.73 in 10.0 mi WNW 9.2 mph - N/A   Clear
3:53 PM 105.1 °F 103.8 °F 55.0 °F 19% 29.71 in 10.0 mi WNW 10.4 mph - N/A   Clear
4:53 PM 105.1 °F - 50.0 °F 16% 29.70 in 10.0 mi WNW 9.2 mph - N/A   Partly Cloudy
5:53 PM 102.9 °F 102.4 °F 57.0 °F 22% 29.68 in 10.0 mi NW 8.1 mph - N/A   Partly Cloudy
6:53 PM 100.0 °F 99.2 °F 57.0 °F 24% 29.68 in 10.0 mi NW 6.9 mph - N/A   Scattered Clouds
7:53 PM 93.0 °F 93.8 °F 62.1 °F 36% 29.68 in 10.0 mi NW 5.8 mph - N/A   Partly Cloudy
8:53 PM 90.0 °F 90.3 °F 62.1 °F 39% 29.69 in 10.0 mi NW 8.1 mph - N/A   Clear
9:53 PM 88.0 °F 87.1 °F 59.0 °F 37% 29.70 in 10.0 mi NW 6.9 mph - N/A   Clear
10:53 PM 84.0 °F 84.5 °F 62.1 °F 47% 29.72 in 10.0 mi West 6.9 mph - N/A   Clear
11:53 PM 82.9 °F 83.3 °F 61.0 °F 47% 29.72 in 10.0 mi WNW 6.9 mph - N/A   Clear